DELTA 1 DEB

Satellite information

Favourite Embed

Satellite Type and Status

DEBRISIN ORBIT

Key statistics

Satellite DELTA 1 DEB at a glance.

Uptime

17394

Days in orbit

Revolutions

≈ 14.3

Per day

Orbit

SSO

Sun Synchronous Orbit

Inclination

98.9

Latest

Satellite identification and parameters

Extended collection of information and parameters for DELTA 1 DEB.

Object identification

Identified? True

Debris? True

Object name: DELTA 1 DEB

International designator: 1978-026FS

Object number (NORAD): 13579

Object ID (CCSDS): 13579

Country: UNITED STATES OF AMERICA (US)

Current information (Y/N): Y

RCS size: SMALL

Orbital parameters

Period: 100.903 minutes

Inclination: 98.9055 deg

SMA: 7179.544 km

Apoapsis: 815.102 km

Periapsis: 787.716 km

RAAN: 278.0584 deg

Eccentricy: 0.00190725

Argument of periapsis: 79.6556 deg

Mean anomaly: 280.6772 deg

Mean motion: 14.2711013 rev/day

Mean motion (dot): 0.00001926 rev/day2

B* drag term: 0.00080723139 1/REarth

Two-line elements (TLE)

Creation date: Oct. 18, 2025, 2:17 a.m.

Reference frame: TEME

Reference center: EARTH

Epoch: Oct. 17, 2025, 10:27 p.m. UTC

TLE line 0: 0 DELTA 1 DEB

TLE line 1: 1 13579U 78026FS 25290.93581355 .00001926 00000-0 80723-3 0 9996

TLE line 2: 2 13579 98.9055 278.0584 0019072 79.6556 280.6772 14.27110130279273

Live tracking on map

Real-time ground track for satellite DELTA 1 DEB.

In-orbit conjunctions

A list of the most updated potential collisions computed for object DELTA 1 DEB.

Target Orbit TCA Probability of collision Miss distance Type
STELLA SSO 2025-05-06 14:50:30 0.000229463 637.0 (m) PAYLOAD
PEGASUS R/B LEO 2024-06-03 22:15:46 0.0001221658 641.0 (m) ROCKET BODY

Associated space launch

Earth observation satellite

DELTA 1 DEB was lifted into orbit during the mission ‘Delta 2910 | Landsat 3’, on board a Delta 2910 space rocket.

The launch took place on March 5, 1978, 5:54 p.m. from Space Launch Complex 2W.

For more information about the launch, click the button.

Launch to space Delta 2910 | Landsat 3
Delta 2910 | Landsat 3

Agency: N/A

Status: Launch Successful

Launch date: March 5, 1978, 5:54 p.m. UTC

Rocket: Delta 2910

Launch pad: Space Launch Complex 2W

Location: Vandenberg SFB, CA, USA

...

Latest news about this satellite

There are no fresh news available about this satellite. Check back as we update our databases every day.


Newsletter sign-up

Weekly statistics, charts and insights to help you stay on top of the space industry.